This demonstration page uses our WeatherBlox Daily Observations layout. Learn more.

39.92423, -83.80882

Hourly Observations for September 3, 2016

Temp ( °F °C ) Dew Point ( °F °C ) Humidity (%) Winds ( mph kmh ) Pressure ( in mb ) Visibility ( mi km ) Precip ( " mm )
12:56 am 00:56 Clear 60 15.6 55 12.8 84 84 NE 9 15 30.17 1022 10 16.0934 0 0
1:56 am 01:56 Clear 59 15 54 12.2 83 83 NE 8 13 30.17 1022 10 16.0934 0 0
2:56 am 02:56 Clear 57 13.9 53 11.7 87 87 NE 7 11 30.16 1021 10 16.0934 0 0
3:56 am 03:56 Clear 56 13.3 53 11.7 90 90 NE 7 11 30.16 1021 10 16.0934 0 0
4:56 am 04:56 Clear 56 13.3 53 11.7 90 90 NE 7 11 30.15 1021 10 16.0934 0 0
5:56 am 05:56 Clear 55 12.8 52 11.1 90 90 NE 6 9 30.15 1021 10 16.0934 0 0
6:56 am 06:56 Clear 54 12.2 52 11.1 93 93 NE 7 11 30.17 1022 10 16.0934 0 0
7:56 am 07:56 Sunny 57 13.9 54 12.2 90 90 NE 6 9 30.19 1023 10 16.0934 0 0
8:56 am 08:56 Sunny 62 16.7 57 13.9 84 84 ENE 7 11 30.21 1023 10 16.0934 0 0
9:56 am 09:56 Sunny 67 19.4 58 14.4 73 73 E 9 15 30.22 1023 10 16.0934 0 0
10:56 am 10:56 Sunny 71 21.7 59 15 66 66 ENE 8 13 30.21 1023 10 16.0934 0 0
11:56 am 11:56 Sunny 73 22.8 58 14.4 59 59 E 6 9 30.21 1023 10 16.0934 0 0
12:56 pm 12:56 Mostly Sunny 74 23.3 57 13.9 56 56 E 8 13 30.19 1023 10 16.0934 0 0
1:56 pm 13:56 Partly Cloudy 76 24.4 58 14.4 54 54 ESE 8 13 30.19 1022 10 16.0934 0 0
2:56 pm 14:56 Mostly Sunny 77 25 57 13.9 50 50 NE 8 13 30.18 1022 10 16.0934 0 0
3:56 pm 15:56 Mostly Sunny 77 25 56 13.3 48 48 ENE 8 13 30.15 1021 10 16.0934 0 0
4:56 pm 16:56 Mostly Sunny 77 25 57 13.9 50 50 E 7 11 30.14 1021 10 16.0934 0 0
5:56 pm 17:56 Sunny 77 25 57 13.9 50 50 E 10 17 30.14 1021 10 16.0934 0 0
6:56 pm 18:56 Sunny 75 23.9 58 14.4 55 55 E 7 11 30.14 1021 10 16.0934 0 0
7:56 pm 19:56 Sunny 71 21.7 58 14.4 63 63 ESE 3 6 30.15 1021 10 16.0934 0 0
8:56 pm 20:56 Clear 64 17.8 58 14.4 81 81 Calm 30.16 1021 10 16.0934 0 0
9:56 pm 21:56 Clear 64 17.8 58 14.4 81 81 NNE 3 6 30.17 1022 10 16.0934 0 0
10:56 pm 22:56 Clear 62 16.7 58 14.4 86 86 Calm 30.17 1022 9 14.48406 0 0
11:56 pm 23:56 Clear 59 15 56 13.3 90 90 NE 3 6 30.18 1022 10 16.0934 0 0

Powered by AerisWeather